Regional Weather Roundup
Issued by NWS Kansas City/Pleasant Hill, MO

Home | Current Version | Previous Version | Text Only | Print | Product List | Glossary On
Versions: 1 2 3 4 5 6 7 8 9 10 11 12 13 14 15 16 17 18 19 20 21 22 23 24 25 26 27
000
ASUS43 KEAX 261310
RWREAX

WEATHER ROUNDUP FOR EASTERN KANSAS AND NORTHWEST MISSOURI
NATIONAL WEATHER SERVICE KANSAS CITY/PLEASANT HILL MO
800 AM CDT TUE JUL 26 2016

KSZ040-057-103>105-MOZ028-029-037-043-261400-
...KANSAS CITY METROPOLITAN AREA...

CITY           SKY/WX    TMP DP  RH WIND       PRES   REMARKS
K.C. INTL      MOSUNNY   73  68  84 E7        30.08R
K.C. DOWNTOWN  SUNNY     76  69  79 NE5       30.07R
LEES SUMMIT    SUNNY     74  69  85 NE7       30.08R
OLATHE - IXD   SUNNY     74  70  87 NE5       30.08R
OLATHE - OJC   SUNNY     74  69  85 NE5       30.07S
LAWRENCE       SUNNY     72  69  90 CALM      30.07S

$$

MOZ001>008-011>017-020>025-030>033-038>040-044>046-053-054-261400-
...NORTHERN AND CENTRAL MISSOURI...

CITY           SKY/WX    TMP DP  RH WIND       PRES   REMARKS
ST. JOSEPH     SUNNY     70  66  87 CALM      30.08S
MOSBY          SUNNY     70  68  94 CALM      30.08R
WHITEMAN AFB   NOT AVBL
CLINTON        PTSUNNY   72  72 100 E6        30.06S
SEDALIA        SUNNY     75  71  87 NE5       30.08R
WARSAW         NOT AVBL
CHILLICOTHE      N/A     73  68  84 N3        30.09S
KIRKSVILLE     SUNNY     72  66  81 NE5       30.09S

$$

MOZ041-047>049-056>058-063>065-088>090-097-261400-
...EASTERN AND SOUTHERN MISSOURI...

CITY           SKY/WX    TMP DP  RH WIND       PRES   REMARKS
ST. LOUIS INTL CLOUDY    78  72  81 NE5       30.04S
SPIRIT OF STL  MOSUNNY   77  74  90 N3        30.03R
COLUMBIA       CLOUDY    73  70  90 NE6       30.07R
JEFFERSON CITY CLOUDY    73  70  90 SE3       30.06R
ROLLA          CLOUDY    74  70  87 E5        30.05S
OSAGE BEACH    PTSUNNY   74  71  91 NE6       30.06S
SPRINGFIELD    PTSUNNY   77  72  84 NE5       30.05R
BRANSON        PTSUNNY   73  72  94 CALM      30.06S
JOPLIN         CLOUDY    75  73  93 NE5       30.03S
WEST PLAINS    CLOUDY    76  72  87 VRB3      30.07S

$$

IAZ060-094-KSZ022-034>040-054-083-096-NEZ052-066-093-261400-
...KANSAS...SOUTHEAST NEBRASKA AND IOWA...

CITY           SKY/WX    TMP DP  RH WIND       PRES   REMARKS
TOPEKA         SUNNY     72  68  87 CALM      30.07S
MANHATTAN      MOSUNNY   70  67  90 NE3       30.08R
EMPORIA        MOSUNNY   74  71  91 NE7       30.06S
CHANUTE        CLOUDY    76  72  87 E8        30.03S
WICHITA        CLOUDY    75  72  90 NE7       30.04S FOG
OMAHA          MOSUNNY   71  66  84 CALM      30.08S
LINCOLN        SUNNY     70  66  87 CALM      30.10R
FALLS CITY     SUNNY     70  66  87 CALM      30.08R
LAMONI         SUNNY     69  65  86 N3        30.10R
DES MOINES     SUNNY     73  68  84 W3        30.09R

$$





USA.gov is the U.S. government's official web portal to all federal, state and local government web resources and services.